x

Port Wing, Wi (pngw3) Weather Station

12:40pm - Fri 12th Feb 2016 All times are CST. -6 hours from GMT.

  • Wind
    17mph, 23mph gusts
  • Air Temp 2°f
  • Sea Pressure 1030.1mb
  • Port Wing, Wi
  • Port Wing, Wi

More Historic Weather Station data

Upgrade to MSW Pro to gain access to the past 30 days of data for over 8000 Wavebouys and Weather Stations around the globe.

Join Pro

Comparision Forecast

View Surf forecast
   
Fri 02/12 12:40pm 17 23 mph 1030.1mb 2f
12:30pm 21 24 mph 1029.8mb 2f
12:20pm 16 22 mph 1029.8mb 2f
12:10pm 15 24 mph 1029.5mb 2f
12:00pm 18 24 mph 1029.5mb 2f
11:50am 21 25 mph 1029.5mb 2f
11:40am 16 25 mph 1029.1mb 2f
11:30am 21 28 mph 1028.8mb 2f
11:20am 16 25 mph 1028.8mb 2f
11:10am 18 28 mph 1028.8mb 1f
11:00am 17 25 mph 1028.8mb 2f
10:50am 18 28 mph 1028.4mb 2f
10:40am 22 26 mph 1028.4mb 2f
10:30am 18 26 mph 1028.1mb 2f
10:20am 21 28 mph 1028.1mb 2f
10:10am 16 24 mph 1027.8mb 2f
10:00am 18 28 mph 1027.8mb 2f
9:50am 21 28 mph 1027.4mb 2f
9:40am 16 24 mph 1027.1mb 2f
9:30am 16 28 mph 1027.1mb 2f
9:20am 17 29 mph 1026.8mb 2f
9:10am 21 26 mph 1026.8mb 2f
9:00am 18 25 mph 1026.4mb 3f
8:50am 24 30 mph 1026.4mb 3f
8:48am 20 30 mph 1026.1mb 3f
8:40am 21 24 mph 1026.1mb 3f
8:30am 20 28 mph 1025.7mb 3f
8:20am 21 29 mph 1025.4mb 3f
8:10am 23 28 mph 1025.4mb 3f
8:00am 22 28 mph 1025.4mb 4f
7:50am 17 29 mph 1025.1mb 4f
7:40am 21 26 mph 1024.7mb 4f
7:30am 18 29 mph 1024.4mb 4f
7:20am 21 29 mph 1024.4mb 4f
7:10am 17 26 mph 1024mb 5f
7:00am 20 29 mph 1023.7mb 5f
6:40am 23 28 mph 1023.4mb 6f
6:30am 22 29 mph 1023mb 6f
6:20am 25 30 mph 1022.7mb 7f
6:17am 21 30 mph 1022.7mb 7f
6:10am 20 28 mph 1022.7mb 7f
6:00am 20 28 mph 1022.7mb 7f
5:50am 21 28 mph 1022.7mb 8f
5:40am 17 28 mph 1022.4mb 8f
5:30am 18 24 mph 1022.4mb 8f
5:20am 21 26 mph 1022.4mb 8f
5:10am 21 26 mph 1022.4mb 8f
5:00am 21 28 mph 1022.4mb 9f
4:50am 20 26 mph 1022mb 9f
4:40am 20 25 mph 1022mb 9f
4:30am 21 25 mph 1022mb 9f
4:20am 20 23 mph 1022mb 9f
4:10am 20 26 mph 1022mb 9f
4:00am 17 25 mph 1021.7mb 10f
3:50am 20 26 mph 1021.7mb 10f
3:40am 18 24 mph 1021.7mb 10f
3:30am 17 28 mph 1021.7mb 10f
3:20am 18 24 mph 1021.3mb 11f
3:10am 18 25 mph 1021.3mb 11f
3:00am 17 26 mph 1021.3mb 12f
2:50am 18 23 mph 1021mb 12f
2:40am 16 24 mph 1021mb 12f
2:30am 20 26 mph 1021mb 12f
2:20am 18 28 mph 1021mb 13f
2:10am 18 25 mph 1020.7mb 13f
2:00am 21 24 mph 1020.7mb 13f
1:50am 21 31 mph 1020.7mb 13f
1:44am 17 31 mph 1020mb 13f
1:40am 20 25 mph 1020.3mb 13f
1:30am 17 23 mph 1020.7mb 14f
1:20am 17 24 mph 1020.7mb 14f
1:10am 16 23 mph 1020.7mb 14f
1:00am 16 23 mph 1020.7mb 14f
12:50am 17 28 mph 1020.7mb 14f
12:40am 18 24 mph 1020.7mb 14f
12:30am 17 26 mph 1020.7mb 14f
12:20am 17 24 mph 1020.7mb 15f
12:10am 15 21 mph 1020.7mb 15f
12:00am 16 25 mph 1020.7mb 15f
Thu 02/11 11:50pm 18 24 mph 1021mb 15f
11:40pm 21 24 mph 1021mb 15f
11:30pm 20 24 mph 1021mb 15f
11:20pm 17 25 mph 1021mb 15f
11:10pm 20 28 mph 1021mb 15f
11:00pm 14 24 mph 1021mb 15f
10:50pm 20 26 mph 1021mb 16f
10:40pm 17 24 mph 1021mb 16f
10:30pm 15 24 mph 1021mb 16f
10:20pm 15 23 mph 1021.3mb 16f
10:10pm 18 22 mph 1021.3mb 16f
10:00pm 16 22 mph 1021.3mb 16f
9:50pm 16 24 mph 1021.3mb 16f
9:40pm 18 24 mph 1021.3mb 16f
9:30pm 16 22 mph 1021.3mb 17f
9:20pm 17 22 mph 1021.3mb 17f
9:10pm 17 21 mph 1021.3mb 17f
9:00pm 15 24 mph 1021.7mb 17f
8:50pm 16 20 mph 1021.3mb 17f
8:40pm 15 20 mph 1021.7mb 15f
8:30pm 8 14 mph 1021.7mb 15f
8:20pm 9 18 mph 1021.7mb 15f
8:10pm 9 18 mph 1021.7mb 15f
8:00pm 10 15 mph 1021.7mb 15f
7:50pm 10 17 mph 1021.7mb 16f
7:40pm 11 17 mph 1021.7mb 16f
7:30pm 13 17 mph 1021.7mb 16f
7:20pm 11 17 mph 1021.7mb 17f
7:10pm 14 21 mph 1021.7mb 17f
7:00pm 8 15 mph 1022mb 16f
6:50pm 9 15 mph 1022mb 16f
6:40pm 9 14 mph 1022mb 15f
6:30pm 9 15 mph 1022mb 15f
6:20pm 8 11 mph 1022mb 15f
6:10pm 8 14 mph 1022mb 15f
6:00pm 7 14 mph 1022mb 15f
5:50pm 11 14 mph 1021.7mb 15f
5:40pm 9 13 mph 1021.7mb 15f
5:30pm 9 16 mph 1021.7mb 15f
5:20pm 8 14 mph 1022mb 15f
5:10pm 10 14 mph 1021.7mb 15f
5:00pm 8 15 mph 1021.7mb 15f
4:50pm 10 15 mph 1021.7mb 15f
4:40pm 8 15 mph 1021.7mb 15f
4:30pm 10 15 mph 1021.7mb 15f
4:20pm 10 15 mph 1021.7mb 15f
4:10pm 10 17 mph 1021.7mb 15f
4:00pm 11 17 mph 1021.7mb 15f
7:40am 9 11 mph 1025.7mb -3f
7:30am 8 10 mph 1026.1mb -3f
7:20am 8 10 mph 1026.1mb -3f
7:10am 9 13 mph 1026.1mb -3f
7:00am 9 11 mph 1025.7mb -2f
6:50am 9 11 mph 1025.7mb -2f
6:40am 8 13 mph 1025.4mb -1f
6:30am 9 11 mph 1025.4mb -1f
6:20am 9 10 mph 1025.4mb -1f
6:10am 8 10 mph 1025.4mb -1f
6:00am 7 10 mph 1025.4mb -
5:50am 7 9 mph 1025.4mb -
5:40am 7 9 mph 1025.4mb -
5:30am 7 9 mph 1025.4mb -
5:20am 7 8 mph 1025.4mb -
5:10am 7 9 mph 1025.4mb -
5:00am 6 8 mph 1025.4mb -
4:50am 5 8 mph 1025.4mb 1f
4:40am 7 9 mph 1025.4mb 1f
4:30am 9
mph
1025.4mb -
4:20am 8 11 mph 1025.4mb 1f
4:10am 9 11 mph 1025.7mb -
4:00am 6 11 mph 1025.4mb -
3:50am 8 15 mph 1025.4mb 1f
3:40am 3 8 mph 1025.4mb 6f
3:30am 6 9 mph 1025.1mb 8f
3:20am 5 10 mph 1025.1mb 8f
3:10am 8 13 mph 1025.1mb 7f
3:00am 8 11 mph 1025.1mb 7f
2:50am 7 10 mph 1025.1mb 7f
2:40am 8 13 mph 1025.1mb 7f
2:30am 7 10 mph 1025.1mb 7f
2:20am 9 15 mph 1025.1mb 7f
2:10am 9 14 mph 1025.1mb 8f
2:00am 8 11 mph 1025.1mb 8f
1:50am 11 15 mph 1025.1mb 8f
1:40am 11 15 mph 1025.1mb 8f
1:30am 9 17 mph 1024.7mb 8f
1:20am 11 15 mph 1024.7mb 8f
1:10am 11 15 mph 1024.7mb 8f
1:00am 8 15 mph 1024.7mb 8f
12:50am 9 15 mph 1024.7mb 8f
12:40am 9 14 mph 1024.4mb 9f
12:30am 8 14 mph 1024.4mb 8f
12:20am 9 14 mph 1024.4mb 8f
12:10am 11 14 mph 1024.4mb 8f
12:00am 8 15 mph 1024mb 8f
Wed 02/10 11:50pm 9 13 mph 1024mb 8f
11:40pm 7 15 mph 1024mb 8f
11:30pm 10 14 mph 1024.4mb 8f
11:20pm 9 14 mph 1024.4mb 8f
11:10pm 13 16 mph 1024mb 8f
11:00pm 11 17 mph 1024mb 8f
10:50pm 14 16 mph 1024mb 8f
10:40pm 11 16 mph 1024mb 8f
10:30pm 14 17 mph 1024mb 9f
10:20pm 14 18 mph 1024mb 9f
10:10pm 15 20 mph 1023.7mb 9f
10:00pm 14 20 mph 1023.7mb 9f
9:50pm 17 24 mph 1023.7mb 9f
9:40pm 16 24 mph 1023.7mb 10f
9:30pm 17 24 mph 1023.4mb 10f
9:20pm 13 21 mph 1023.4mb 10f
9:10pm 14 18 mph 1023.4mb 10f
9:00pm 13 18 mph 1023.7mb 10f
8:50pm 15 20 mph 1023.7mb 10f
8:40pm 13 20 mph 1023.7mb 11f
8:30pm 15 21 mph 1023.4mb 11f
8:20pm 15 18 mph 1023.4mb 11f
8:10pm 14 20 mph 1023.4mb 11f
8:00pm 16 21 mph 1023mb 11f
7:50pm 14 17 mph 1023mb 12f
7:40pm 15 20 mph 1023mb 12f
7:30pm 14 21 mph 1022.7mb 12f
7:20pm 7 15 mph 1022.7mb 6f
7:10pm 1 6 mph 1022.7mb 4f
7:00pm 3 5 mph 1022.4mb 3f
6:50pm 2 3 mph 1022.4mb 2f
6:40pm 3
mph
1022.4mb 2f
6:30pm 2 5 mph 1022.7mb 2f
6:20pm 3 6 mph 1022.4mb 3f
6:10pm 6
mph
1022.4mb 4f
6:00pm 5
mph
1022.4mb 5f
5:50pm 3 5 mph 1022.4mb 6f
7:40am 11 16 mph 1020mb 5f
7:30am 9 13 mph 1020mb 4f
7:20am 9 17 mph 1020mb 5f
7:10am 9 15 mph 1020mb 5f
7:00am 6 14 mph 1020mb 4f
6:50am 13 17 mph 1020mb 4f
6:40am 13 16 mph 1020.3mb 5f
6:30am 11 15 mph 1020mb 5f
6:20am 9 14 mph 1020mb 5f
6:10am 9 14 mph 1020mb 5f
6:00am 8 14 mph 1020mb 5f
5:50am 9 15 mph 1020mb 5f
12:40am 10 17 mph 1020mb 7f
12:30am 10 18 mph 1020mb 8f
12:20am 11 17 mph 1020mb 8f
12:10am 13 17 mph 1019.6mb 8f
12:00am 8 17 mph 1019.6mb 7f
Tue 02/09 11:50pm 13 18 mph 1019.6mb 7f
11:40pm 10 15 mph 1020mb 8f
11:30pm 11 15 mph 1020mb 8f
11:20pm 10 18 mph 1020mb 8f
11:10pm 13 17 mph 1020mb 8f
11:00pm 14 20 mph 1020mb 8f
10:50pm 13 22 mph 1020mb 8f
10:40pm 17 22 mph 1020mb 8f
10:30pm 13 22 mph 1020.3mb 8f
10:20pm 17 24 mph 1020.3mb 9f
10:10pm 16 21 mph 1020.3mb 9f
10:00pm 15 25 mph 1020.3mb 9f
9:50pm 15 23 mph 1020.3mb 9f
9:40pm 14 23 mph 1020.3mb 9f
9:30pm 18 21 mph 1020mb 9f
9:20pm 16 24 mph 1020.3mb 9f
9:10pm 14 25 mph 1020mb 9f
9:00pm 17 28 mph 1020.3mb 9f
8:50pm 17 26 mph 1020.3mb 9f
8:40pm 18 29 mph 1020mb 9f
8:30pm 17 22 mph 1020mb 9f
8:20pm 16 24 mph 1020.3mb 9f
8:10pm 15 23 mph 1020.3mb 9f
8:00pm 16 23 mph 1020.3mb 9f
7:50pm 20 24 mph 1020.7mb 10f
7:40pm 18 25 mph 1020.7mb 10f
7:30pm 18 23 mph 1020.3mb 11f
7:20pm 14 24 mph 1020.3mb 10f
7:10pm 17 24 mph 1020.3mb 11f
7:00pm 17 23 mph 1020mb 11f
6:40pm 20 29 mph 1020mb 11f